Year,Month,Day,Hour,Minute,Value (Times are PST for temperature in C)
2010,03,29,00,15,9.30
2010,03,29,00,16,9.30
2010,03,29,00,17,9.30
2010,03,29,00,18,9.30
2010,03,29,00,19,9.30
2010,03,29,00,20,9.30
2010,03,29,00,21,9.30
2010,03,29,00,22,9.30
2010,03,29,00,23,9.30
2010,03,29,00,24,9.30
2010,03,29,00,25,9.30
2010,03,29,00,26,9.30
2010,03,29,00,27,9.30
2010,03,29,00,28,9.30
2010,03,29,00,29,9.30
2010,03,29,00,30,9.30
2010,03,29,00,31,9.30
2010,03,29,00,32,9.30
2010,03,29,00,33,9.30
2010,03,29,00,34,9.30
2010,03,29,00,35,9.30
2010,03,29,00,36,9.30
2010,03,29,00,37,9.30
2010,03,29,00,38,9.30
2010,03,29,00,39,9.30
2010,03,29,00,40,9.30
2010,03,29,00,41,9.30
2010,03,29,00,42,9.30
2010,03,29,00,43,9.30
2010,03,29,00,44,9.30
2010,03,29,00,45,9.40
2010,03,29,00,46,9.40
2010,03,29,00,47,9.40
2010,03,29,00,48,9.40
2010,03,29,00,49,9.40
2010,03,29,00,50,9.40
2010,03,29,00,51,9.40
2010,03,29,00,52,9.40
2010,03,29,00,53,9.40
2010,03,29,00,54,9.40
2010,03,29,00,55,9.40
2010,03,29,00,56,9.40
2010,03,29,00,57,9.40
2010,03,29,00,58,9.40
2010,03,29,00,59,9.40
2010,03,29,01,00,9.70
2010,03,29,01,01,9.70
2010,03,29,01,02,9.70
2010,03,29,01,03,9.70
2010,03,29,01,04,9.70
2010,03,29,01,05,9.70
2010,03,29,01,06,9.70
2010,03,29,01,07,9.70
2010,03,29,01,08,9.70
2010,03,29,01,09,9.70
2010,03,29,01,10,9.70
2010,03,29,01,11,9.70
2010,03,29,01,12,9.70
2010,03,29,01,13,9.70
2010,03,29,01,14,9.70
2010,03,29,01,15,9.90
2010,03,29,01,16,9.90
2010,03,29,01,17,9.90
2010,03,29,01,18,9.90
2010,03,29,01,19,9.90
2010,03,29,01,20,9.90
2010,03,29,01,21,9.90
2010,03,29,01,22,9.90
2010,03,29,01,23,9.90
2010,03,29,01,24,9.90
2010,03,29,01,25,9.90
2010,03,29,01,26,9.90
2010,03,29,01,27,9.90
2010,03,29,01,28,9.90
2010,03,29,01,29,9.90
2010,03,29,01,30,9.90
2010,03,29,01,31,9.90
2010,03,29,01,32,9.90
2010,03,29,01,33,9.90
2010,03,29,01,34,9.90
2010,03,29,01,35,9.90
2010,03,29,01,36,9.90
2010,03,29,01,37,9.90
2010,03,29,01,38,9.90
2010,03,29,01,39,9.90
2010,03,29,01,40,9.90
2010,03,29,01,41,9.90
2010,03,29,01,42,9.90
2010,03,29,01,43,9.90
2010,03,29,01,44,9.90
2010,03,29,01,45,9.90
2010,03,29,01,46,9.90
2010,03,29,01,47,9.90
2010,03,29,01,48,9.90
2010,03,29,01,49,9.90
2010,03,29,01,50,9.90
2010,03,29,01,51,9.90
2010,03,29,01,52,9.90
2010,03,29,01,53,9.90
2010,03,29,01,54,9.90
2010,03,29,01,55,9.90
2010,03,29,01,56,9.90
2010,03,29,01,57,9.90
2010,03,29,01,58,9.90
2010,03,29,01,59,9.90
2010,03,29,02,00,9.80
2010,03,29,02,01,9.80
2010,03,29,02,02,9.80
2010,03,29,02,03,9.80
2010,03,29,02,04,9.80
2010,03,29,02,05,9.80
2010,03,29,02,06,9.80
2010,03,29,02,07,9.80
2010,03,29,02,08,9.80
2010,03,29,02,09,9.80
2010,03,29,02,10,9.80
2010,03,29,02,11,9.80
2010,03,29,02,12,9.80
2010,03,29,02,13,9.80
2010,03,29,02,14,9.80
2010,03,29,02,15,9.80
2010,03,29,02,16,9.80
2010,03,29,02,17,9.80
2010,03,29,02,18,9.80
2010,03,29,02,19,9.80
2010,03,29,02,20,9.80
2010,03,29,02,21,9.80
2010,03,29,02,22,9.80
2010,03,29,02,23,9.80
2010,03,29,02,24,9.80
2010,03,29,02,25,9.80
2010,03,29,02,26,9.80
2010,03,29,02,27,9.80
2010,03,29,02,28,9.80
2010,03,29,02,29,9.80
2010,03,29,02,30,9.80
2010,03,29,02,31,9.80
2010,03,29,02,32,9.80
2010,03,29,02,33,9.80
2010,03,29,02,34,9.80
2010,03,29,02,35,9.80
2010,03,29,02,36,9.80
2010,03,29,02,37,9.80
2010,03,29,02,38,9.80
2010,03,29,02,39,9.80
2010,03,29,02,40,9.80
2010,03,29,02,41,9.80
2010,03,29,02,42,9.80
2010,03,29,02,43,9.80
2010,03,29,02,44,9.80
2010,03,29,02,45,9.60
2010,03,29,02,46,9.60
2010,03,29,02,47,9.60
2010,03,29,02,48,9.60
2010,03,29,02,49,9.60
2010,03,29,02,50,9.60
2010,03,29,02,51,9.60
2010,03,29,02,52,9.60
2010,03,29,02,53,9.60
2010,03,29,02,54,9.60
2010,03,29,02,55,9.60
2010,03,29,02,56,9.60
2010,03,29,02,57,9.60
2010,03,29,02,58,9.60
2010,03,29,02,59,9.60
2010,03,29,03,00,9.00
2010,03,29,03,01,9.00
2010,03,29,03,02,9.00
2010,03,29,03,03,9.00
2010,03,29,03,04,9.00
2010,03,29,03,05,9.00
2010,03,29,03,06,9.00
2010,03,29,03,07,9.00
2010,03,29,03,08,9.00
2010,03,29,03,09,9.00
2010,03,29,03,10,9.00
2010,03,29,03,11,9.00
2010,03,29,03,12,9.00
2010,03,29,03,13,9.00
2010,03,29,03,14,9.00
2010,03,29,03,15,8.80
2010,03,29,03,16,8.80
2010,03,29,03,17,8.80
2010,03,29,03,18,8.80
2010,03,29,03,19,8.80
2010,03,29,03,20,8.80
2010,03,29,03,21,8.80
2010,03,29,03,22,8.80
2010,03,29,03,23,8.80
2010,03,29,03,24,8.80
2010,03,29,03,25,8.80
2010,03,29,03,26,8.80
2010,03,29,03,27,8.80
2010,03,29,03,28,8.80
2010,03,29,03,29,8.80
2010,03,29,03,30,8.70
2010,03,29,03,31,8.70
2010,03,29,03,32,8.70
2010,03,29,03,33,8.70
2010,03,29,03,34,8.70
2010,03,29,03,35,8.70
2010,03,29,03,36,8.70
2010,03,29,03,37,8.70
2010,03,29,03,38,8.70
2010,03,29,03,39,8.70
2010,03,29,03,40,8.70
2010,03,29,03,41,8.70
2010,03,29,03,42,8.70
2010,03,29,03,43,8.70
2010,03,29,03,44,8.70
2010,03,29,03,45,8.40
2010,03,29,03,46,8.40
2010,03,29,03,47,8.40
2010,03,29,03,48,8.40
2010,03,29,03,49,8.40
2010,03,29,03,50,8.40
2010,03,29,03,51,8.40
2010,03,29,03,52,8.40
2010,03,29,03,53,8.40
2010,03,29,03,54,8.40
2010,03,29,03,55,8.40
2010,03,29,03,56,8.40
2010,03,29,03,57,8.40
2010,03,29,03,58,8.40
2010,03,29,03,59,8.40
2010,03,29,04,00,8.30
2010,03,29,04,01,8.30
2010,03,29,04,02,8.30
2010,03,29,04,03,8.30
2010,03,29,04,04,8.30
2010,03,29,04,05,8.30
2010,03,29,04,06,8.30
2010,03,29,04,07,8.30
2010,03,29,04,08,8.30
2010,03,29,04,09,8.30
2010,03,29,04,10,8.30
2010,03,29,04,11,8.30
2010,03,29,04,12,8.30
2010,03,29,04,13,8.30
2010,03,29,04,14,8.30
2010,03,29,04,15,8.20
2010,03,29,04,16,8.20
2010,03,29,04,17,8.20
2010,03,29,04,18,8.20
2010,03,29,04,19,8.20
2010,03,29,04,20,8.20
2010,03,29,04,21,8.20
2010,03,29,04,22,8.20
2010,03,29,04,23,8.20
2010,03,29,04,24,8.20
2010,03,29,04,25,8.20
2010,03,29,04,26,8.20
2010,03,29,04,27,8.20
2010,03,29,04,28,8.20
2010,03,29,04,29,8.20
2010,03,29,04,30,8.20
2010,03,29,04,31,8.20
2010,03,29,04,32,8.20
2010,03,29,04,33,8.20
2010,03,29,04,34,8.20
2010,03,29,04,35,8.20
2010,03,29,04,36,8.20
2010,03,29,04,37,8.20
2010,03,29,04,38,8.20
2010,03,29,04,39,8.20
2010,03,29,04,40,8.20
2010,03,29,04,41,8.20
2010,03,29,04,42,8.20
2010,03,29,04,43,8.20
2010,03,29,04,44,8.20
2010,03,29,04,45,8.20
2010,03,29,04,46,8.20
2010,03,29,04,47,8.20
2010,03,29,04,48,8.20
2010,03,29,04,49,8.20
2010,03,29,04,50,8.20
2010,03,29,04,51,8.20
2010,03,29,04,52,8.20
2010,03,29,04,53,8.20
2010,03,29,04,54,8.20
2010,03,29,04,55,8.20
2010,03,29,04,56,8.20
2010,03,29,04,57,8.20
2010,03,29,04,58,8.20
2010,03,29,04,59,8.20
2010,03,29,05,00,8.10
2010,03,29,05,01,8.10
2010,03,29,05,02,8.10
2010,03,29,05,03,8.10
2010,03,29,05,04,8.10
2010,03,29,05,05,8.10
2010,03,29,05,06,8.10
2010,03,29,05,07,8.10
2010,03,29,05,08,8.10
2010,03,29,05,09,8.10
2010,03,29,05,10,8.10
2010,03,29,05,11,8.10
2010,03,29,05,12,8.10
2010,03,29,05,13,8.10
2010,03,29,05,14,8.10
2010,03,29,05,15,8.10
2010,03,29,05,16,8.10
2010,03,29,05,17,8.10
2010,03,29,05,18,8.10
2010,03,29,05,19,8.10
2010,03,29,05,20,8.10
2010,03,29,05,21,8.10
2010,03,29,05,22,8.10
2010,03,29,05,23,8.10
2010,03,29,05,24,8.10
2010,03,29,05,25,8.10
2010,03,29,05,26,8.10
2010,03,29,05,27,8.10
2010,03,29,05,28,8.10
2010,03,29,05,29,8.10
2010,03,29,05,30,7.60
2010,03,29,05,31,7.60
2010,03,29,05,32,7.60
2010,03,29,05,33,7.60
2010,03,29,05,34,7.60
2010,03,29,05,35,7.60
2010,03,29,05,36,7.60
2010,03,29,05,37,7.60
2010,03,29,05,38,7.60
2010,03,29,05,39,7.60
2010,03,29,05,40,7.60
2010,03,29,05,41,7.60
2010,03,29,05,42,7.60
2010,03,29,05,43,7.60
2010,03,29,05,44,7.60
2010,03,29,05,45,7.80
2010,03,29,05,46,7.80
2010,03,29,05,47,7.80
2010,03,29,05,48,7.80
2010,03,29,05,49,7.80
2010,03,29,05,50,7.80
2010,03,29,05,51,7.80
2010,03,29,05,52,7.80
2010,03,29,05,53,7.80
2010,03,29,05,54,7.80
2010,03,29,05,55,7.80
2010,03,29,05,56,7.80
2010,03,29,05,57,7.80
2010,03,29,05,58,7.80
2010,03,29,05,59,7.80
2010,03,29,06,00,7.50
2010,03,29,06,01,7.50
2010,03,29,06,02,7.50
2010,03,29,06,03,7.50
2010,03,29,06,04,7.50
2010,03,29,06,05,7.50
2010,03,29,06,06,7.50
2010,03,29,06,07,7.50
2010,03,29,06,08,7.50
2010,03,29,06,09,7.50
2010,03,29,06,10,7.50
2010,03,29,06,11,7.50
2010,03,29,06,12,7.50
2010,03,29,06,13,7.50
2010,03,29,06,14,7.50
2010,03,29,06,15,7.40
2010,03,29,06,16,7.40
2010,03,29,06,17,7.40
2010,03,29,06,18,7.40
2010,03,29,06,19,7.40
2010,03,29,06,20,7.40
2010,03,29,06,21,7.40
2010,03,29,06,22,7.40
2010,03,29,06,23,7.40
2010,03,29,06,24,7.40
2010,03,29,06,25,7.40
2010,03,29,06,26,7.40
2010,03,29,06,27,7.40
2010,03,29,06,28,7.40
2010,03,29,06,29,7.40
2010,03,29,06,30,7.50
2010,03,29,06,31,7.50
2010,03,29,06,32,7.50
2010,03,29,06,33,7.50
2010,03,29,06,34,7.50
2010,03,29,06,35,7.50
2010,03,29,06,36,7.50
2010,03,29,06,37,7.50
2010,03,29,06,38,7.50
2010,03,29,06,39,7.50
2010,03,29,06,40,7.50
2010,03,29,06,41,7.50
2010,03,29,06,42,7.50
2010,03,29,06,43,7.50
2010,03,29,06,44,7.50
2010,03,29,06,45,7.40
2010,03,29,06,46,7.40
2010,03,29,06,47,7.40
2010,03,29,06,48,7.40
2010,03,29,06,49,7.40
2010,03,29,06,50,7.40
2010,03,29,06,51,7.40
2010,03,29,06,52,7.40
2010,03,29,06,53,7.40
2010,03,29,06,54,7.40
2010,03,29,06,55,7.40
2010,03,29,06,56,7.40
2010,03,29,06,57,7.40
2010,03,29,06,58,7.40
2010,03,29,06,59,7.40
2010,03,29,07,00,7.40
2010,03,29,07,01,7.40
2010,03,29,07,02,7.40
2010,03,29,07,03,7.40
2010,03,29,07,04,7.40
2010,03,29,07,05,7.40
2010,03,29,07,06,7.40
2010,03,29,07,07,7.40
2010,03,29,07,08,7.40
2010,03,29,07,09,7.40
2010,03,29,07,10,7.40
2010,03,29,07,11,7.40
2010,03,29,07,12,7.40
2010,03,29,07,13,7.40
2010,03,29,07,14,7.40
2010,03,29,07,15,7.60
2010,03,29,07,16,7.60
2010,03,29,07,17,7.60
2010,03,29,07,18,7.60
2010,03,29,07,19,7.60
2010,03,29,07,20,7.60
2010,03,29,07,21,7.60
2010,03,29,07,22,7.60
2010,03,29,07,23,7.60
2010,03,29,07,24,7.60
2010,03,29,07,25,7.60
2010,03,29,07,26,7.60
2010,03,29,07,27,7.60
2010,03,29,07,28,7.60
2010,03,29,07,29,7.60
2010,03,29,07,30,7.40
2010,03,29,07,31,7.40
2010,03,29,07,32,7.40
2010,03,29,07,33,7.40
2010,03,29,07,34,7.40
2010,03,29,07,35,7.40
2010,03,29,07,36,7.40
2010,03,29,07,37,7.40
2010,03,29,07,38,7.40
2010,03,29,07,39,7.40
2010,03,29,07,40,7.40
2010,03,29,07,41,7.40
2010,03,29,07,42,7.40
2010,03,29,07,43,7.40
2010,03,29,07,44,7.40
2010,03,29,07,45,7.40
2010,03,29,07,46,7.40
2010,03,29,07,47,7.40
2010,03,29,07,48,7.40
2010,03,29,07,49,7.40
2010,03,29,07,50,7.40
2010,03,29,07,51,7.40
2010,03,29,07,52,7.40
2010,03,29,07,53,7.40
2010,03,29,07,54,7.40
2010,03,29,07,55,7.40
2010,03,29,07,56,7.40
2010,03,29,07,57,7.40
2010,03,29,07,58,7.40
2010,03,29,07,59,7.40
2010,03,29,08,00,7.60
2010,03,29,08,01,7.60
2010,03,29,08,02,7.60
2010,03,29,08,03,7.60
2010,03,29,08,04,7.60
2010,03,29,08,05,7.60
2010,03,29,08,06,7.60
2010,03,29,08,07,7.60
2010,03,29,08,08,7.60
2010,03,29,08,09,7.60
2010,03,29,08,10,7.60
2010,03,29,08,11,7.60
2010,03,29,08,12,7.60
2010,03,29,08,13,7.60
2010,03,29,08,14,7.60
2010,03,29,08,15,8.00
2010,03,29,08,16,8.00
2010,03,29,08,17,8.00
2010,03,29,08,18,8.00
2010,03,29,08,19,8.00
2010,03,29,08,20,8.00
2010,03,29,08,21,8.00
2010,03,29,08,22,8.00
2010,03,29,08,23,8.00
2010,03,29,08,24,8.00
2010,03,29,08,25,8.00
2010,03,29,08,26,8.00
2010,03,29,08,27,8.00
2010,03,29,08,28,8.00
2010,03,29,08,29,8.00
2010,03,29,08,30,8.10
2010,03,29,08,31,8.10
2010,03,29,08,32,8.10
2010,03,29,08,33,8.10
2010,03,29,08,34,8.10
2010,03,29,08,35,8.10
2010,03,29,08,36,8.10
2010,03,29,08,37,8.10
2010,03,29,08,38,8.10
2010,03,29,08,39,8.10
2010,03,29,08,40,8.10
2010,03,29,08,41,8.10
2010,03,29,08,42,8.10
2010,03,29,08,43,8.10
2010,03,29,08,44,8.10
2010,03,29,08,45,8.50
2010,03,29,08,46,8.50
2010,03,29,08,47,8.50
2010,03,29,08,48,8.50
2010,03,29,08,49,8.50
2010,03,29,08,50,8.50
2010,03,29,08,51,8.50
2010,03,29,08,52,8.50
2010,03,29,08,53,8.50
2010,03,29,08,54,8.50
2010,03,29,08,55,8.50
2010,03,29,08,56,8.50
2010,03,29,08,57,8.50
2010,03,29,08,58,8.50
2010,03,29,08,59,8.50
2010,03,29,09,00,8.50
2010,03,29,09,01,8.70
2010,03,29,09,02,8.70
2010,03,29,09,03,8.70
2010,03,29,09,04,8.70
2010,03,29,09,05,8.70
2010,03,29,09,06,8.70
2010,03,29,09,07,8.70
2010,03,29,09,08,8.70
2010,03,29,09,09,8.70
2010,03,29,09,10,8.70
2010,03,29,09,11,8.70
2010,03,29,09,12,8.70
2010,03,29,09,13,8.70
2010,03,29,09,14,8.70
2010,03,29,09,15,8.70
2010,03,29,09,17,8.40
2010,03,29,09,18,8.40
2010,03,29,09,19,8.40
2010,03,29,09,20,8.40
2010,03,29,09,21,8.40
2010,03,29,09,22,8.40
2010,03,29,09,23,8.40
2010,03,29,09,24,8.40
2010,03,29,09,25,8.40
2010,03,29,09,26,8.40
2010,03,29,09,27,8.40
2010,03,29,09,28,8.40
2010,03,29,09,29,8.40
2010,03,29,09,30,8.40
2010,03,29,09,32,8.30
2010,03,29,09,33,8.30
2010,03,29,09,34,8.30
2010,03,29,09,35,8.30
2010,03,29,09,36,8.30
2010,03,29,09,37,8.30
2010,03,29,09,38,8.30
2010,03,29,09,39,8.30
2010,03,29,09,40,8.30
2010,03,29,09,41,8.30
2010,03,29,09,42,8.30
2010,03,29,09,43,8.30
2010,03,29,09,44,8.30
2010,03,29,09,45,8.30
2010,03,29,09,46,8.30
2010,03,29,09,47,8.30
2010,03,29,09,48,8.30
2010,03,29,09,49,8.30
2010,03,29,09,50,8.30
2010,03,29,09,51,8.30
2010,03,29,09,52,8.30
2010,03,29,09,53,8.30
2010,03,29,09,54,8.30
2010,03,29,09,55,8.30
2010,03,29,09,56,8.30
2010,03,29,09,57,8.30
2010,03,29,09,58,8.30
2010,03,29,09,59,8.30
2010,03,29,10,00,8.30
2010,03,29,10,01,8.30
2010,03,29,10,02,8.60
2010,03,29,10,03,8.60
2010,03,29,10,04,8.60
2010,03,29,10,05,8.60
2010,03,29,10,06,8.60
2010,03,29,10,07,8.60
2010,03,29,10,08,8.60
2010,03,29,10,09,8.60
2010,03,29,10,10,8.60
2010,03,29,10,11,8.60
2010,03,29,10,12,8.60
2010,03,29,10,13,8.60
2010,03,29,10,14,8.60
2010,03,29,10,15,8.60
2010,03,29,10,16,8.60
2010,03,29,10,17,8.60
2010,03,29,10,18,8.60
2010,03,29,10,19,8.60
2010,03,29,10,20,8.60
2010,03,29,10,21,8.60
2010,03,29,10,22,8.60
2010,03,29,10,23,8.60
2010,03,29,10,24,8.60
2010,03,29,10,25,8.60
2010,03,29,10,26,8.60
2010,03,29,10,27,8.60
2010,03,29,10,28,8.60
2010,03,29,10,29,8.60
2010,03,29,10,30,8.40
2010,03,29,10,31,8.40
2010,03,29,10,32,8.40
2010,03,29,10,33,8.40
2010,03,29,10,34,8.40
2010,03,29,10,35,8.40
2010,03,29,10,36,8.40
2010,03,29,10,37,8.40
2010,03,29,10,38,8.40
2010,03,29,10,39,8.40
2010,03,29,10,40,8.40
2010,03,29,10,41,8.40
2010,03,29,10,42,8.40
2010,03,29,10,43,8.40
2010,03,29,10,44,8.40
2010,03,29,10,45,8.50
2010,03,29,10,46,8.50
2010,03,29,10,47,8.50
2010,03,29,10,48,8.50
2010,03,29,10,49,8.50
2010,03,29,10,50,8.50
2010,03,29,10,51,8.50
2010,03,29,10,52,8.50
2010,03,29,10,53,8.50
2010,03,29,10,54,8.50
2010,03,29,10,55,8.50
2010,03,29,10,56,8.50
2010,03,29,10,57,8.50
2010,03,29,10,58,8.50
2010,03,29,10,59,8.50
2010,03,29,11,00,8.60
2010,03,29,11,01,8.60
2010,03,29,11,02,8.60
2010,03,29,11,03,8.60
2010,03,29,11,04,8.60
2010,03,29,11,05,8.60
2010,03,29,11,06,8.60
2010,03,29,11,07,8.60
2010,03,29,11,08,8.60
2010,03,29,11,09,8.60
2010,03,29,11,10,8.60
2010,03,29,11,11,8.60
2010,03,29,11,12,8.60
2010,03,29,11,13,8.60
2010,03,29,11,14,8.60
2010,03,29,11,15,8.60
2010,03,29,11,16,8.60
2010,03,29,11,17,8.60
2010,03,29,11,18,8.60
2010,03,29,11,19,8.60
2010,03,29,11,20,8.60
2010,03,29,11,21,8.60
2010,03,29,11,22,8.60
2010,03,29,11,23,8.60
2010,03,29,11,24,8.60
2010,03,29,11,25,8.60
2010,03,29,11,26,8.60
2010,03,29,11,27,8.60
2010,03,29,11,28,8.60
2010,03,29,11,29,8.60
2010,03,29,11,30,8.20
2010,03,29,11,31,8.20
2010,03,29,11,32,8.20
2010,03,29,11,33,8.20
2010,03,29,11,34,8.20
2010,03,29,11,35,8.20
2010,03,29,11,36,8.20
2010,03,29,11,37,8.20
2010,03,29,11,38,8.20
2010,03,29,11,39,8.20
2010,03,29,11,40,8.20
2010,03,29,11,41,8.20
2010,03,29,11,42,8.20
2010,03,29,11,43,8.20
2010,03,29,11,44,8.20
2010,03,29,11,45,7.70
2010,03,29,11,46,7.70
2010,03,29,11,47,7.70
2010,03,29,11,48,7.70
2010,03,29,11,49,7.70
2010,03,29,11,50,7.70
2010,03,29,11,51,7.70
2010,03,29,11,52,7.70
2010,03,29,11,53,7.70
2010,03,29,11,54,7.70
2010,03,29,11,55,7.70
2010,03,29,11,56,7.70
2010,03,29,11,57,7.70
2010,03,29,11,58,7.70
2010,03,29,11,59,7.70
2010,03,29,12,00,7.70
2010,03,29,12,01,7.70
2010,03,29,12,02,7.70
2010,03,29,12,03,7.70
2010,03,29,12,04,7.70
2010,03,29,12,05,7.70
2010,03,29,12,06,7.70
2010,03,29,12,07,7.70
2010,03,29,12,08,7.70
2010,03,29,12,09,7.70
2010,03,29,12,10,7.70
2010,03,29,12,11,7.70
2010,03,29,12,12,7.70
2010,03,29,12,13,7.70
2010,03,29,12,14,7.70
2010,03,29,12,15,7.70
2010,03,29,12,16,7.70
2010,03,29,12,17,7.70
2010,03,29,12,18,7.70
2010,03,29,12,19,7.70
2010,03,29,12,20,7.70
2010,03,29,12,21,7.70
2010,03,29,12,22,7.70
2010,03,29,12,23,7.70
2010,03,29,12,24,7.70
2010,03,29,12,25,7.70
2010,03,29,12,26,7.70
2010,03,29,12,27,7.70
2010,03,29,12,28,7.70
2010,03,29,12,29,7.70
2010,03,29,12,30,7.70
2010,03,29,12,31,7.70
2010,03,29,12,32,7.70
2010,03,29,12,33,7.70
2010,03,29,12,34,7.70
2010,03,29,12,35,7.70
2010,03,29,12,36,7.70
2010,03,29,12,37,7.70
2010,03,29,12,38,7.70
2010,03,29,12,39,7.70
2010,03,29,12,40,7.70
2010,03,29,12,41,7.70
2010,03,29,12,42,7.70
2010,03,29,12,43,7.70
2010,03,29,12,44,7.70
2010,03,29,12,45,7.90
2010,03,29,12,46,7.90
2010,03,29,12,47,7.90
2010,03,29,12,48,7.90
2010,03,29,12,49,7.90
2010,03,29,12,50,7.90
2010,03,29,12,51,7.90
2010,03,29,12,52,7.90
2010,03,29,12,53,7.90
2010,03,29,12,54,7.90
2010,03,29,12,55,7.90
2010,03,29,12,56,7.90
2010,03,29,12,57,7.90
2010,03,29,12,58,7.90
2010,03,29,12,59,7.90
2010,03,29,13,00,7.90
2010,03,29,13,01,7.90
2010,03,29,13,02,7.90
2010,03,29,13,03,7.90
2010,03,29,13,04,7.90
2010,03,29,13,05,7.90
2010,03,29,13,06,7.90
2010,03,29,13,07,7.90
2010,03,29,13,08,7.90
2010,03,29,13,09,7.90
2010,03,29,13,10,7.90
2010,03,29,13,11,7.90
2010,03,29,13,12,7.90
2010,03,29,13,13,7.90
2010,03,29,13,14,7.90
2010,03,29,13,15,8.30
2010,03,29,13,16,8.30
2010,03,29,13,17,8.30
2010,03,29,13,18,8.30
2010,03,29,13,19,8.30
2010,03,29,13,20,8.30
2010,03,29,13,21,8.30
2010,03,29,13,22,8.30
2010,03,29,13,23,8.30
2010,03,29,13,24,8.30
2010,03,29,13,25,8.30
2010,03,29,13,26,8.30
2010,03,29,13,27,8.30
2010,03,29,13,28,8.30
2010,03,29,13,29,8.30
2010,03,29,13,30,8.30
2010,03,29,13,31,8.30
2010,03,29,13,32,8.30
2010,03,29,13,33,8.30
2010,03,29,13,34,8.30
2010,03,29,13,35,8.30
2010,03,29,13,36,8.30
2010,03,29,13,37,8.30
2010,03,29,13,38,8.30
2010,03,29,13,39,8.30
2010,03,29,13,40,8.30
2010,03,29,13,41,8.30
2010,03,29,13,42,8.30
2010,03,29,13,43,8.30
2010,03,29,13,44,8.30
2010,03,29,13,45,6.90
2010,03,29,13,46,6.90
2010,03,29,13,47,6.90
2010,03,29,13,48,6.90
2010,03,29,13,49,6.90
2010,03,29,13,50,6.90
2010,03,29,13,51,6.90
2010,03,29,13,52,6.90
2010,03,29,13,53,6.90
2010,03,29,13,54,6.90
2010,03,29,13,55,6.90
2010,03,29,13,56,6.90
2010,03,29,13,57,6.90
2010,03,29,13,58,6.90
2010,03,29,13,59,6.90
2010,03,29,14,00,7.40
2010,03,29,14,01,7.40
2010,03,29,14,02,7.40
2010,03,29,14,03,7.40
2010,03,29,14,04,7.40
2010,03,29,14,05,7.40
2010,03,29,14,06,7.40
2010,03,29,14,07,7.40
2010,03,29,14,08,7.40
2010,03,29,14,09,7.40
2010,03,29,14,10,7.40
2010,03,29,14,11,7.40
2010,03,29,14,12,7.40
2010,03,29,14,13,7.40
2010,03,29,14,14,7.40
2010,03,29,14,15,7.70
2010,03,29,14,16,7.70
2010,03,29,14,17,7.70
2010,03,29,14,18,7.70
2010,03,29,14,19,7.70
2010,03,29,14,20,7.70
2010,03,29,14,21,7.70
2010,03,29,14,22,7.70
2010,03,29,14,23,7.70
2010,03,29,14,24,7.70
2010,03,29,14,25,7.70
2010,03,29,14,26,7.70
2010,03,29,14,27,7.70
2010,03,29,14,28,7.70
2010,03,29,14,29,7.70
2010,03,29,14,30,6.90
2010,03,29,14,31,6.90
2010,03,29,14,32,6.90
2010,03,29,14,33,6.90
2010,03,29,14,34,6.90
2010,03,29,14,35,6.90
2010,03,29,14,36,6.90
2010,03,29,14,37,6.90
2010,03,29,14,38,6.90
2010,03,29,14,39,6.90
2010,03,29,14,40,6.90
2010,03,29,14,41,6.90
2010,03,29,14,42,6.90
2010,03,29,14,43,6.90
2010,03,29,14,44,6.90
2010,03,29,14,45,6.50
2010,03,29,14,46,6.50
2010,03,29,14,47,6.50
2010,03,29,14,48,6.50
2010,03,29,14,49,6.50
2010,03,29,14,50,6.50
2010,03,29,14,51,6.50
2010,03,29,14,52,6.50
2010,03,29,14,53,6.50
2010,03,29,14,54,6.50
2010,03,29,14,55,6.50
2010,03,29,14,56,6.50
2010,03,29,14,57,6.50
2010,03,29,14,58,6.50
2010,03,29,14,59,6.50
2010,03,29,15,00,6.40
2010,03,29,15,01,6.40
2010,03,29,15,02,6.40
2010,03,29,15,03,6.40
2010,03,29,15,04,6.40
2010,03,29,15,05,6.40
2010,03,29,15,06,6.40
2010,03,29,15,07,6.40
2010,03,29,15,08,6.40
2010,03,29,15,09,6.40
2010,03,29,15,10,6.40
2010,03,29,15,11,6.40
2010,03,29,15,12,6.40
2010,03,29,15,13,6.40
2010,03,29,15,14,6.40
2010,03,29,15,15,6.40
2010,03,29,15,16,6.40
2010,03,29,15,17,6.40
2010,03,29,15,18,6.40
2010,03,29,15,19,6.40
2010,03,29,15,20,6.40
2010,03,29,15,21,6.40
2010,03,29,15,22,6.40
2010,03,29,15,23,6.40
2010,03,29,15,24,6.40
2010,03,29,15,25,6.40
2010,03,29,15,26,6.40
2010,03,29,15,27,6.40
2010,03,29,15,28,6.40
2010,03,29,15,29,6.40
2010,03,29,15,30,6.40
2010,03,29,15,31,6.40
2010,03,29,15,32,6.40
2010,03,29,15,33,6.40
2010,03,29,15,34,6.40
2010,03,29,15,35,6.40
2010,03,29,15,36,6.40
2010,03,29,15,37,6.40
2010,03,29,15,38,6.40
2010,03,29,15,39,6.40
2010,03,29,15,40,6.40
2010,03,29,15,41,6.40
2010,03,29,15,42,6.40
2010,03,29,15,43,6.40
2010,03,29,15,44,6.40
2010,03,29,15,45,6.50
2010,03,29,15,46,6.50
2010,03,29,15,47,6.50
2010,03,29,15,48,6.50
2010,03,29,15,49,6.50
2010,03,29,15,50,6.50
2010,03,29,15,51,6.50
2010,03,29,15,52,6.50
2010,03,29,15,53,6.50
2010,03,29,15,54,6.50
2010,03,29,15,55,6.50
2010,03,29,15,56,6.50
2010,03,29,15,57,6.50
2010,03,29,15,58,6.50
2010,03,29,15,59,6.50
2010,03,29,16,00,6.40
2010,03,29,16,01,6.40
2010,03,29,16,02,6.40
2010,03,29,16,03,6.40
2010,03,29,16,04,6.40
2010,03,29,16,05,6.40
2010,03,29,16,06,6.40
2010,03,29,16,07,6.40
2010,03,29,16,08,6.40
2010,03,29,16,09,6.40
2010,03,29,16,10,6.40
2010,03,29,16,11,6.40
2010,03,29,16,12,6.40
2010,03,29,16,13,6.40
2010,03,29,16,14,6.40
2010,03,29,16,15,6.10
2010,03,29,16,16,6.10
2010,03,29,16,17,6.10
2010,03,29,16,18,6.10
2010,03,29,16,19,6.10
2010,03,29,16,20,6.10
2010,03,29,16,21,6.10
2010,03,29,16,22,6.10
2010,03,29,16,23,6.10
2010,03,29,16,24,6.10
2010,03,29,16,25,6.10
2010,03,29,16,26,6.10
2010,03,29,16,27,6.10
2010,03,29,16,28,6.10
2010,03,29,16,29,6.10
2010,03,29,16,30,6.40
2010,03,29,16,31,6.40
2010,03,29,16,32,6.40
2010,03,29,16,33,6.40
2010,03,29,16,34,6.40
2010,03,29,16,35,6.40
2010,03,29,16,36,6.40
2010,03,29,16,37,6.40
2010,03,29,16,38,6.40
2010,03,29,16,39,6.40
2010,03,29,16,40,6.40
2010,03,29,16,41,6.40
2010,03,29,16,42,6.40
2010,03,29,16,43,6.40
2010,03,29,16,44,6.40
2010,03,29,16,45,6.40
2010,03,29,16,46,6.40
2010,03,29,16,47,6.40
2010,03,29,16,48,6.40
2010,03,29,16,49,6.40
2010,03,29,16,50,6.40
2010,03,29,16,51,6.40
2010,03,29,16,52,6.40
2010,03,29,16,53,6.40
2010,03,29,16,54,6.40
2010,03,29,16,55,6.40
2010,03,29,16,56,6.40
2010,03,29,16,57,6.40
2010,03,29,16,58,6.40
2010,03,29,16,59,6.40
2010,03,29,17,00,6.30
2010,03,29,17,01,6.30
2010,03,29,17,02,6.30
2010,03,29,17,03,6.30
2010,03,29,17,04,6.30
2010,03,29,17,05,6.30
2010,03,29,17,06,6.30
2010,03,29,17,07,6.30
2010,03,29,17,08,6.30
2010,03,29,17,09,6.30
2010,03,29,17,10,6.30
2010,03,29,17,11,6.30
2010,03,29,17,12,6.30
2010,03,29,17,13,6.30
2010,03,29,17,14,6.30
2010,03,29,17,15,6.60
2010,03,29,17,16,6.60
2010,03,29,17,17,6.60
2010,03,29,17,18,6.60
2010,03,29,17,19,6.60
2010,03,29,17,20,6.60
2010,03,29,17,21,6.60
2010,03,29,17,22,6.60
2010,03,29,17,23,6.60
2010,03,29,17,24,6.60
2010,03,29,17,25,6.60
2010,03,29,17,26,6.60
2010,03,29,17,27,6.60
2010,03,29,17,28,6.60
2010,03,29,17,29,6.60
2010,03,29,17,30,6.50
2010,03,29,17,31,6.50
2010,03,29,17,32,6.50
2010,03,29,17,33,6.50
2010,03,29,17,34,6.50
2010,03,29,17,35,6.50
2010,03,29,17,36,6.50
2010,03,29,17,37,6.50
2010,03,29,17,38,6.50
2010,03,29,17,39,6.50
2010,03,29,17,40,6.50
2010,03,29,17,41,6.50
2010,03,29,17,42,6.50
2010,03,29,17,43,6.50
2010,03,29,17,44,6.50
2010,03,29,17,45,6.90
2010,03,29,17,46,6.90
2010,03,29,17,47,6.90
2010,03,29,17,48,6.90
2010,03,29,17,49,6.90
2010,03,29,17,50,6.90
2010,03,29,17,51,6.90
2010,03,29,17,52,6.90
2010,03,29,17,53,6.90
2010,03,29,17,54,6.90
2010,03,29,17,55,6.90
2010,03,29,17,56,6.90
2010,03,29,17,57,6.90
2010,03,29,17,58,6.90
2010,03,29,17,59,6.90
2010,03,29,18,00,6.70
2010,03,29,18,01,6.70
2010,03,29,18,02,6.70
2010,03,29,18,03,6.70
2010,03,29,18,04,6.70
2010,03,29,18,05,6.70
2010,03,29,18,06,6.70
2010,03,29,18,07,6.70
2010,03,29,18,08,6.70
2010,03,29,18,09,6.70
2010,03,29,18,10,6.70
2010,03,29,18,11,6.70
2010,03,29,18,12,6.70
2010,03,29,18,13,6.70
2010,03,29,18,14,6.70
2010,03,29,18,15,6.80
2010,03,29,18,16,6.80
2010,03,29,18,17,6.80
2010,03,29,18,18,6.80
2010,03,29,18,19,6.80
2010,03,29,18,20,6.80
2010,03,29,18,21,6.80
2010,03,29,18,22,6.80
2010,03,29,18,23,6.80